Hourly Data Report for April 22, 2016

All times are specified in Local Standard Time (LST). Add 1 hour to adjust for Daylight Saving Time where and when it is observed.

EMERSON AUTO
MANITOBA

49°00'00.000" N
97°14'15.000" W
242.00 m
5020881
71560
WEX

Download Data

Hourly Data (April 2016)
Hourly Data Report for April 22, 2016
Temp Definition
°C
Dew Point Temp Definition
°C
Rel Hum Definition
%
Wind Dir Definition
10's deg

Wind Spd Definition
km/h
Visibility Definition
km
Stn Press Definition
kPa
Hmdx Definition


Wind Chill Definition


Weather Definition


TIME
00:00 0.0 -3.6 77 36 10   99.37   -3 LegendNANA
01:00 0.6 -4.8 67 1 13   99.38     LegendNANA
02:00 0.0 -4.8 70 2 12   99.37   -4 LegendNANA
03:00 -0.8 -4.3 77 1 11   99.39   -5 LegendNANA
04:00 -1.2 -4.0 81 1 11   99.41   -5 LegendNANA
05:00 -1.5 -3.9 83 1 10   99.43   -5 LegendNANA
06:00 -1.3 -4.1 81 2 11   99.48   -5 LegendNANA
07:00 -0.2 -4.2 74 2 8   99.50   -3 LegendNANA
08:00 1.0 -2.8 75 35 5   99.50     LegendNANA
09:00 1.9 -1.8 77 32 10   99.54     LegendNANA
10:00 3.2 -1.7 71 34 8   99.51     LegendNANA
11:00 6.4 -2.2 54 36 11   99.50     LegendNANA
12:00 7.9 -2.6 47 1 10   99.46     LegendNANA
13:00 8.5 -0.9 52 2 10   99.41     LegendNANA
14:00 8.8 -0.8 51 1 15   99.38     LegendNANA
15:00 9.3 -0.7 50 2 17   99.34     LegendNANA
16:00 9.2 -1.1 48 3 13   99.30     LegendNANA
17:00 9.6 -1.1 47 4 17   99.26     LegendNANA
18:00 8.7 -2.2 46 3 22   99.24     LegendNANA
19:00 6.1 -2.5 54 3 25   99.23     LegendNANA
20:00 4.0 -1.8 66 3 15   99.22     LegendNANA
21:00 4.3 -3.1 58 3 15   99.24     LegendNANA
22:00 4.2 -3.0 60 4 15   99.24     LegendNANA
23:00 3.6 -2.2 66 3 16   99.23     LegendNANA

Notes on Data Quality.

Legend

  • E = Estimated
  • M = Missing
  • NA = Not Available
  • ‡ = Partner data that is not subject to review by the National Climate Archives
Date modified: